Location: Passau
(48.5830°N, 13.4830°E)
Time: 06:47:11
(UTC+02:00)

Vanguard 1 - Pass Details

Date: 31 July 2021
Orbit: 652 x 3831 km, 34.3° (Epoch: 16 September)

Event Time Altitude Azimuth Distance (km) Brightness Sun altitude
Rises 14:50:14 0° 252° (WSW) 3,624 13.5 53.7°
Reaches altitude 10° 14:52:44 10° 240° (WSW) 2,942 13.3 53.4°
Maximum altitude 14:58:54 30° 182° (S) 2,457 13.1 52.7°
Drops below altitude 10° 15:08:48 10° 128° (SE) 4,820 13.6 51.5°
Sets 15:14:19 0° 120° (ESE) 6,403 14.1 50.8°
